Regional Weather Roundup
Issued by NWS Wakefield, VA

Home | Current Version | Previous Version | Graphics & Text | Print | Product List | Glossary On
Versions: 1 2 3 4 5 6 7 8 9 10 11 12 13 14 15 16 17 18 19 20 21 22 23 24 25 26 27
000
ASUS41 KAKQ 232315
RWRAKQ

REGIONAL WEATHER ROUNDUP
NATIONAL WEATHER SERVICE WAKEFIELD VA
700 PM EDT SUN APR 23 2017

Note: "fair" indicates few or no clouds below 12,000 feet with no
significant weather and/or obstructions to visibility. * = Denotes
station may not report precipitation (e.g., rain,snow,etc.),
thunder or fog.

VAZ042-051-052>054-056-240000-
NORTHERN VIRGINIA

CITY           SKY/WX    TMP DP  RH WIND       PRES   REMARKS
WASH NATIONAL  CLOUDY    59  44  57 E5        30.09S
DULLES         CLOUDY    56  42  59 SE3       30.08S
FORT BELVOIR   MOCLDY    57  44  61 CALM      30.08S
QUANTICO       CLOUDY    58  49  72 SE7       30.09S
FREDERICKSBRG* CLOUDY    57  47  68 E3        30.08S
STAFFORD*      CLOUDY    55  50  81 CALM      30.12S
WARRENTON      CLOUDY    57  43  60 CALM      30.08S
CULPEPER*      CLOUDY    56  47  69 CALM      30.09S
MANASSAS*        N/A     57  43  59 E3        30.09S
LEESBURG*      CLOUDY    59  45  58 CALM      30.09S
WINCHESTER     CLOUDY    54  43  66 SE5       30.07F
FRONT ROYAL*   CLOUDY    54  43  66 CALM      30.07R
LURAY*         CLOUDY    54  45  71 E6        30.07R
$$

VAZ048-049-060>072-079>083-240000-
CENTRAL AND SOUTH CENTRAL VIRGINIA

CITY           SKY/WX    TMP DP  RH WIND       PRES   REMARKS
RICHMOND       LGT RAIN  54  51  90 NE3       30.06S
CHESTERFIELD*  CLOUDY    54  36  50 NE3       30.07F
PETERSBURG*    LGT RAIN  53  49  89 NE7       30.06F
HANOVER        CLOUDY    54  48  80 CALM      30.09R
TAPPAHANNOCK*  PTCLDY    56  47  71 NE3       30.08S
QUINTON*       CLOUDY    54  53  98 MISG      30.07R
CHARLOTTSVILLE CLOUDY    56  44  64 VRB5      30.07S
GORDONSVILLE*  CLOUDY    55  46  72 NE3       30.08R
ORANGE*        CLOUDY    54  45  71 CALM      30.08S
LOUISA*        RAIN      55  52  88 CALM      30.07R
BUMPASS*       CLOUDY    54  48  81 CALM      30.08S
FARMVILLE*     RAIN      53  53  99 NE6       30.05S
CREWE*         CLOUDY    51  51 100 CALM      30.05S
FORT PICKETT*  CLOUDY    51  48  89 N6        30.05S
CHASE CITY*    CLOUDY    51  49  95 N5        30.05R
CLARKSVILLE*   CLOUDY    50  50 100 NE3       30.04R
SOUTH HILL*    CLOUDY    51  51 100 NE5       30.09S
LAWRENCEVILLE* CLOUDY    52  51  97 N6        30.04R
EMPORIA*       LGT RAIN  52  52 100 NE6       30.05S
$$

VAZ088>098-240000-
SOUTHEAST VIRGINIA

CITY           SKY/WX    TMP DP  RH WIND       PRES   REMARKS
NORFOLK        LGT RAIN  56  51  84 NE14      30.05S
VIRGINIA BEACH LGT RAIN  53  50  89 NE13      30.04F FOG
NORFOLK NAVAL  LGT RAIN  56  51  84 NE10      30.07S
WEST POINT*    CLOUDY    55  52  90 CALM      30.08S
SALUDA*        CLOUDY    55  51  88 E7        30.07S
NEWPORT NEWS   LGT RAIN  53  50  89 NE10      30.06S
LANGLEY AFB    LGT RAIN  54  52  94 NE14      30.06S
FORT EUSTIS    CLOUDY    54  50  87 NE6       30.04S
WILLIAMSBURG*  CLOUDY    55  55 100 CALM      30.08R
HR EXEC AP*    CLOUDY    55  48  76 E8        30.03F
FRANKLIN*      DRIZZLE   54  51  92 NE8       30.04F
US460-WAKEFLD  LGT RAIN  53  51  93 VRB3      30.06R
$$

VAZ020-022-025-037-045-240000-
WEST CENTRAL AND SOUTHWEST VIRGINIA

CITY           SKY/WX    TMP DP  RH WIND       PRES   REMARKS
STAUNTON*      DRIZZLE   52  42  68 SE5       30.08S
WAYNESBORO*    CLOUDY    50  44  78 SE5       30.07S
HOT SPRINGS VA LGT RAIN  41  39  93 E10       30.03S
LYNCHBURG      LGT RAIN  49  47  93 NE8       30.06F
DANVILLE       LGT RAIN  50  50 100 NE9       30.03F
SOUTH BOSTON*  CLOUDY    51  49  95 NE5       30.05R
MARTINSVILLE   RAIN      47  46  93 NE3       30.05R
ROANOKE        LGT RAIN  48  47  96 SE5       30.06S
BLACKSBURG     RAIN      45  43  94 E8        30.03F
DUBLIN*        LGT RAIN  46  42  87 E10       30.00F
MARION*        LGT RAIN  45  44  96 E10       30.01R
HILLSVILLE*    RAIN      43  43 100 CALM      29.97R
RICHLANDS*     RAIN      46  45  99 NE7       29.92F
WISE*          RAIN      50  50 100 CALM      29.93R
ABINGDON*      RAIN      49  47  94 E12G22    29.91R
$$

MDZ021>025-VAZ099-100-240000-
SOUTHERN MARYLAND AND THE DELMARVA PENINSULA

CITY           SKY/WX    TMP DP  RH WIND       PRES   REMARKS
PATUXENT RIVER CLOUDY    57  50  77 N7        30.07F
BAY BRIDGE APT CLOUDY    57  45  62 NW3       30.10R
LEONARDTOWN    CLOUDY    55  46  71 CALM      30.09R
DOVER          CLOUDY    52  52 100 SE9       30.09R
GEORGETOWN     CLOUDY    53  44  71 MISG      30.11S
EASTON         CLOUDY    59  43  55 SE5       30.12F
CAMBRIDGE      CLEAR     57  46  67 E3        30.09R
SALISBURY      CLOUDY    53  47  79 E7        30.09F
OCEAN CITY     CLOUDY    51  45  79 E6        30.10F
WALLOPS ISLAND CLOUDY    53  49  86 NE10      30.08F
ACCOMACK*      DRIZZLE   53  49  84 NE8       30.07F
$$

NCZ012>017-030>032-240000-
NORTH CENTRAL AND EASTERN NORTH CAROLINA

CITY           SKY/WX    TMP DP  RH WIND       PRES   REMARKS
ROANOKE RAPIDS CLOUDY    54  52  94 NE8       30.02S
RALEIGH        LGT RAIN  53  51  93 VRB7G20   30.01R FOG
ELIZABETH CITY HVY RAIN  56  55  97 NE15G24   30.02F FOG
AHOSKIE*         N/A     53  51  95 NE8       30.03S
EDENTON*       CLOUDY    56  53  89 NE10      30.01F
CURRITUCK*     LGT RAIN  55  55 100 NE13      30.04F
KILL DEVIL HLS CLOUDY    56  54  91 NE9G18    29.98F
MANTEO         CLOUDY    57  53  88 NE20G25   29.99F
CAPE HATTERAS  CLOUDY    63  58  83 NE10G22   29.94F HAZE
TARBORO*       NOT AVBL
GOLDSBORO      CLOUDY    55  55 100 NE12      29.95F
WASHINGTON     LGT RAIN  55  55  97 NE10      29.99S
GREENVILLE     LGT RAIN  55  54  94 NE9       30.00F
NEW BERN       CLOUDY    59  57  93 NE13      29.97R
WILMINGTON     CLOUDY    64  62  93 E12       29.90S
$$

VAZ048-240000-
ELSEWHERE

CITY           SKY/WX    TMP DP  RH WIND       PRES   REMARKS
HARRISBURG PA  CLOUDY    61  46  57 SE3       30.06S
BALTIMORE      CLOUDY    57  44  62 CALM      30.09R
ANNAPOLIS      CLOUDY    60  45  57 CALM      30.09R
ANDREWS AFB    CLOUDY    56  44  64 E3        30.08R
PHILADELPHIA   CLOUDY    59  46  62 S10       30.09R
HENDERSON NC   RAIN      49  47  95 NE7       30.03R
GREENSBORO     CLOUDY    50  49  96 NE14      29.96S
ROCKY MOUNT    LGT RAIN  54  54 100 NE8       30.00R FOG
$$

VAZ100-240000-
MARINE

STATION/POSITION TIME  TEMP    WIND        PRES    WAVE   SWELL
                       AIR SEA DIR/SP/G            HT/PER HT/PER
                 (UTC) (F)     (DEG/KT/KT) (MB)    (FT/S) (FT/S)
CAPE MAY NJ      2248   51 57  120/  5/  7 1019.4R
LEWES DE         2248   51 56  130/  6/  8 1019.6R
15NM E FENWICK I 2250   51 52   60/ 10/ 12 1019.8R   4/11   3/11
OCEAN-CITY-INLET 2248           90/  6/ 10 1019.7F
WACHAPREAGUE VA  2248   53 61   30/ 13/ 16 1017.9F
THOMAS POINT MD  2300   57 59   CALM  /  1   N/A
GOOSES REEF MD   2300   57 55   10/  4/  6 1019.4
COVE POINT MD    2248   56      10/  5/  6 1019.2F
SOLOMONS ISLAND  2248          360/  5/  6   N/A
BISHOPS HEAD MD  2248   57 62   80/ 11/ 13 1018.6F
PINEY POINT MD   2248           70/  4/  5   N/A
POTOMAC MD       2300   58 62   90/  6/ 10 1017.5    0
CAMBRIDGE MD     2248   57 63  120/  6/  9 1018.0F
LEWISETTA VA     2248   58 63   90/  7/  9 1017.9F
RAPPAHANNOCK LGT 2248           40/ 13/ 15 1018.6F
STINGRAY PT      2300   56 62  110/ 12/ 14 1018.1    2/ 2
YORK RVR RNG VA  2248   55      80/ 14/ 15 1017.6R
YORKTOWN VA      2248   56 64   80/ 15/ 18 1017.8R
JAMESTOWN VA     2300   54 68   60/  6/ 10   N/A     1
DOMINION TERM VA 2248   56      60/ 10/ 15 1017.6F
KIPTOPEKE VA     2248      61   80/  9/ 13   N/A
CHES BAY BRIDGE  2248   55 61   60/ 18/ 20 1017.4F
CAPE HENRY VA    2248   54      50/ 18/ 20   N/A
WILLOUBY STN VA  2248   56      50/ 15/ 18 1018.7S
S CRANEY ISL VA  2248   56      50/ 14/ 18 1017.0F
CAPE HENRY BUOY  2242      56                N/A     5/ 6   2/12
1ST LANDING BUOY 2300   56 61              1017.5    3/ 4
CAPE CHARLES BUO 2251      57                N/A     5/ 6   2/11
64NM E OF VA BCH 2250   55 53   50/ 17/ 19 1016.1F   6/ 8   3/ 8
DUCK PIER NC     2248   55 63   30/ 21/ 25 1015.5F
44100 DUCK FRF   2205      55                N/A     6/ 6   2/12
44056 DUCK FRF   2230      60                N/A     5/ 5   2/12
OREGON INLET NC  2248           30/ 15/ 20 1014.6F
HATTERAS NC      2248   62 68   40/ 13/ 21 1013.4F
DIAMOND SHLS NC  2250   69 76   30/ 21/ 25 1013.0R   7/ 8   3/11
CAPE LOOKOUT NC  2300   63      40/ 21/ 25 1013.0F
$$




USA.gov is the U.S. government's official web portal to all federal, state and local government web resources and services.